Location: Prague
(50.0830°N, 14.4670°E)
Time: 09:48:59
(UTC+01:00)

XW-2F - Pass Details

Date: 30 November 2021
Orbit: 494 x 515 km, 97.5° (Epoch: 18 January)

Event Time Altitude Azimuth Distance (km) Brightness Sun altitude
Rises 06:03:14 0° 17° (NNE) 2,655 ? -14.5°
Reaches altitude 10° 06:05:23 10° 23° (NNE) 1,763 ? -14.2°
Maximum altitude 06:09:06 50° 99° (E) 672 ? -13.6°
Drops below altitude 10° 06:12:46 10° 176° (S) 1,747 ? -13.1°
Sets 06:14:54 0° 182° (S) 2,627 ? -12.7°
